Weather History for Wausau, WI

Change the Weather History Date:

Thursday, February 14, 2013

  Actual Average Record
Temperature  
Mean Temperature 23 °F 19 °F  
Max Temperature 31 °F 28 °F 49 °F (2002)
Min Temperature 15 °F 10 °F -26 °F (1951)
Degree Days  
Heating Degree Days 42 46  
Month to date heating degree days 689 671  
Since 1 July heating degree days 5185 5521  
Cooling Degree Days 0 0  
Month to date cooling degree days 0 0  
Year to date cooling degree days 0 0  
Moisture  
Dew Point 24 °F    
Average Humidity 77    
Maximum Humidity 92    
Minimum Humidity 61    
Precipitation  
Precipitation 0.32 in 0.03 in 0.94 in (1950)
Month to date precipitation 1.04 0.42  
Year to date precipitation 2.72 1.44  
Snow  
Snow 3.70 in 0.40 in 9.40 in (1950)
Month to date snowfall 8.8 4.9  
Since 1 July snowfall 49.3 40.6  
Snow Depth 13.00 in    
Sea Level Pressure  
Sea Level Pressure 29.71 in    
Wind  
Wind Speed 9 mph (NNW)    
Max Wind Speed 17 mph    
Max Gust Speed 24 mph    
Visibility 4 miles    
Events Snow    
T = Trace of Precipitation, MM = Missing Value Source: NWS Daily Summary

Daily Weather History Graph

Daily Weather History Graph

Search for Another Location

Airport:

Trip Planner

Search our weather history database for the weather conditions in past years. The results will help you decide how hot, cold, wet, or windy it might be!

Date:

Astronomy

Feb. 14, 2013 Rise Set
Actual Time 7:00 AM CST 5:25 PM CST
Civil Twilight 6:30 AM CST 5:55 PM CST
Nautical Twilight 5:55 AM CST 6:30 PM CST
Astronomical Twilight 5:21 AM CST 7:04 PM CST
Moon 8:47 AM CST (2/14) 10:44 PM CST (2/14)
Length of Visible Light 11h 25m
Length of Day
10h 25m
Waxing Crescent, 22% of the Moon is Illuminated
Feb 14
Waxing Crescent
Feb 17
First Quarter
Feb 25
Full
Mar 4
Last Quarter
Mar 11
New

Hourly Weather History & Observations

Time (CST) Temp. Windchill Dew Point Humidity Pressure Visibility Wind Dir Wind Speed Gust Speed Precip Events Conditions
12:18 AM 30.2 °F 26.7 °F 28.4 °F 93% 29.58 in 1.2 mi ESE 3.5 mph - 0.01 in Snow Light Snow
12:31 AM 30.2 °F 25.4 °F 28.4 °F 93% 29.57 in 1.8 mi ESE 4.6 mph - 0.01 in Snow Light Snow
12:38 AM 30.2 °F 26.7 °F 28.4 °F 93% 29.57 in 2.0 mi ESE 3.5 mph - 0.01 in Snow Light Snow
12:45 AM 30.2 °F 26.7 °F 28.4 °F 93% 29.57 in 1.5 mi East 3.5 mph - 0.01 in Snow Light Snow
12:52 AM 30.2 °F 26.7 °F 28.4 °F 93% 29.57 in 1.8 mi East 3.5 mph - 0.01 in Snow Light Snow
12:54 AM 30.0 °F 26.5 °F 28.9 °F 96% 29.62 in 1.5 mi East 3.5 mph - 0.01 in Snow Light Snow
1:31 AM 30.2 °F 25.4 °F 28.4 °F 93% 29.56 in 1.0 mi East 4.6 mph - 0.02 in Snow Light Snow
1:45 AM 30.2 °F 25.4 °F 28.4 °F 93% 29.56 in 0.8 mi East 4.6 mph - 0.03 in Snow Light Snow
1:54 AM 30.0 °F 24.1 °F 28.9 °F 96% 29.60 in 0.8 mi ENE 5.8 mph - 0.04 in Snow Light Snow
2:34 AM 30.2 °F 26.7 °F 28.4 °F 93% 29.55 in 1.0 mi ENE 3.5 mph - 0.02 in Snow Light Snow
2:54 AM 30.0 °F 25.2 °F 28.9 °F 96% 29.59 in 1.0 mi ENE 4.6 mph - 0.04 in Snow Light Snow
3:02 AM 30.2 °F 25.4 °F 28.4 °F 93% 29.54 in 0.8 mi NE 4.6 mph - 0.00 in Snow Light Snow
4:09 AM 30.2 °F 25.4 °F 28.4 °F 93% 29.53 in 1.0 mi NNE 4.6 mph - 0.01 in Snow Light Snow
4:36 AM 30.2 °F 26.7 °F 28.4 °F 93% 29.53 in 1.2 mi North 3.5 mph - 0.02 in Snow Light Snow
4:54 AM 30.0 °F 26.5 °F 28.9 °F 96% 29.59 in 1.2 mi North 3.5 mph - 0.02 in Snow Light Snow
5:02 AM 30.2 °F 26.7 °F 28.4 °F 93% 29.54 in 0.8 mi North 3.5 mph - 0.01 in Snow Light Snow
5:25 AM 30.2 °F 25.4 °F 28.4 °F 93% 29.55 in 1.0 mi North 4.6 mph - 0.03 in Snow Light Snow
5:54 AM 30.0 °F 24.1 °F 28.9 °F 96% 29.60 in 1.0 mi North 5.8 mph - 0.04 in Snow Light Snow
6:07 AM 30.2 °F 23.4 °F 28.4 °F 93% 29.55 in 1.2 mi North 6.9 mph - 0.00 in Snow Light Snow
6:54 AM 28.9 °F 19.8 °F 27.0 °F 92% 29.63 in 1.5 mi North 10.4 mph 17.3 mph 0.01 in Snow Light Snow
7:03 AM 28.4 °F 18.5 °F 26.6 °F 93% 29.58 in 1.5 mi North 11.5 mph 21.9 mph 0.00 in Snow Light Snow
7:50 AM 28.4 °F 17.5 °F 24.8 °F 86% 29.61 in 0.8 mi NNW 13.8 mph 18.4 mph 0.00 in Snow Light Snow
7:54 AM 28.0 °F 18.1 °F 25.0 °F 88% 29.67 in 0.8 mi NNW 11.5 mph - 0.00 in Snow Light Snow
8:13 AM 26.6 °F 15.7 °F 24.8 °F 93% 29.62 in 1.0 mi NNW 12.7 mph 17.3 mph 0.00 in Snow Light Snow
8:54 AM 27.0 °F 18.7 °F 24.1 °F 89% 29.69 in 1.2 mi NNW 8.1 mph - 0.00 in Snow Light Snow
9:29 AM 28.4 °F 19.1 °F 24.8 °F 86% 29.65 in 3.0 mi NNW 10.4 mph - 0.00 in Snow Light Snow
9:40 AM 28.4 °F 19.7 °F 24.8 °F 86% 29.65 in 2.0 mi NNW 9.2 mph - 0.00 in Snow Light Snow
9:54 AM 28.0 °F 17.5 °F 24.1 °F 85% 29.70 in 2.0 mi NNW 12.7 mph 18.4 mph 0.00 in Snow Light Snow
10:03 AM 28.4 °F 19.7 °F 24.8 °F 86% 29.66 in 1.8 mi NW 9.2 mph - 0.00 in Snow Light Snow
10:11 AM 28.4 °F 19.7 °F 24.8 °F 86% 29.66 in 2.0 mi NNW 9.2 mph - 0.00 in Snow Light Snow
10:25 AM 28.4 °F 19.7 °F 24.8 °F 86% 29.66 in 2.5 mi NNW 9.2 mph - 0.00 in Snow Light Snow
10:35 AM 28.4 °F 19.7 °F 24.8 °F 86% 29.67 in 3.0 mi NNW 9.2 mph - 0.00 in Snow Light Snow
10:52 AM 28.4 °F 18.5 °F 24.8 °F 86% 29.67 in 2.5 mi NNW 11.5 mph 19.6 mph 0.00 in Snow Light Snow
10:54 AM 28.9 °F 19.2 °F 24.1 °F 82% 29.73 in 3.0 mi NNW 11.5 mph 19.6 mph 0.00 in Snow Light Snow
11:14 AM 28.4 °F 19.1 °F 24.8 °F 86% 29.68 in 2.0 mi NNW 10.4 mph 19.6 mph 0.00 in Snow Light Snow
11:22 AM 30.2 °F 21.9 °F 24.8 °F 80% 29.68 in 1.8 mi NNW 9.2 mph - 0.00 in Snow Light Snow
11:27 AM 30.2 °F 20.8 °F 24.8 °F 80% 29.68 in 3.0 mi NNW 11.5 mph - 0.00 in Snow Light Snow
11:41 AM 30.2 °F 21.3 °F 24.8 °F 80% 29.68 in 1.8 mi NNW 10.4 mph - 0.00 in Snow Light Snow
11:50 AM 30.2 °F 20.8 °F 24.8 °F 80% 29.68 in 3.0 mi NNW 11.5 mph 18.4 mph 0.00 in Snow Light Snow
11:54 AM 30.0 °F 21.1 °F 23.0 °F 75% 29.74 in 6.0 mi NNW 10.4 mph 18.4 mph 0.00 in Snow Light Snow
12:51 PM 30.2 °F 21.3 °F 23.0 °F 75% 29.70 in 4.0 mi NNW 10.4 mph - 0.00 in Snow Light Snow
12:54 PM 30.0 °F 20.0 °F 23.0 °F 75% 29.75 in 4.0 mi NW 12.7 mph - 0.00 in Snow Light Snow
1:23 PM 30.2 °F 20.8 °F 24.8 °F 80% 29.71 in 2.0 mi NW 11.5 mph - 0.00 in Snow Light Snow
1:54 PM 28.9 °F 19.8 °F 24.1 °F 82% 29.78 in 2.0 mi WNW 10.4 mph - 0.00 in Snow Light Snow
1:57 PM 28.4 °F 19.7 °F 24.8 °F 86% 29.72 in 1.8 mi NW 9.2 mph - 0.00 in Snow Light Snow
1:59 PM 28.4 °F 20.4 °F 24.8 °F 86% 29.72 in 2.0 mi WNW 8.1 mph - 0.00 in Snow Light Snow
2:19 PM 30.2 °F 21.3 °F 24.8 °F 80% 29.73 in 1.5 mi NW 10.4 mph - 0.00 in Snow Light Snow
2:24 PM 30.2 °F 20.8 °F 24.8 °F 80% 29.73 in 2.5 mi WNW 11.5 mph - 0.00 in Snow Light Snow
2:31 PM 30.2 °F 22.6 °F 24.8 °F 80% 29.73 in 4.0 mi NW 8.1 mph - 0.00 in Snow Light Snow
2:43 PM 30.2 °F 20.8 °F 24.8 °F 80% 29.74 in 2.0 mi NNW 11.5 mph 18.4 mph 0.00 in Snow Light Snow
2:50 PM 28.4 °F 19.7 °F 24.8 °F 86% 29.74 in 1.0 mi NNW 9.2 mph 18.4 mph 0.00 in Snow Light Snow
2:54 PM 30.0 °F 22.4 °F 24.1 °F 79% 29.80 in 1.5 mi NNW 8.1 mph - 0.00 in Snow Light Snow
2:58 PM 30.2 °F 23.4 °F 24.8 °F 80% 29.75 in 3.0 mi NW 6.9 mph - 0.00 in Snow Light Snow
3:05 PM 30.2 °F 21.3 °F 23.0 °F 75% 29.75 in 9.0 mi NW 10.4 mph - 0.00 in   Overcast
3:54 PM 30.0 °F 20.5 °F 21.0 °F 69% 29.83 in 9.0 mi NW 11.5 mph - 0.00 in Snow Light Snow
4:54 PM 28.0 °F 20.8 °F 21.0 °F 75% 29.87 in 10.0 mi NW 6.9 mph - 0.00 in   Overcast
5:54 PM 27.0 °F 18.7 °F 19.9 °F 75% 29.91 in 9.0 mi NNW 8.1 mph - 0.00 in   Overcast
6:09 PM 26.6 °F 16.2 °F 17.6 °F 69% 29.86 in 10.0 mi NW 11.5 mph 19.6 mph 0.00 in   Overcast
6:34 PM 26.6 °F 16.8 °F 17.6 °F 69% 29.88 in 10.0 mi NNW 10.4 mph 18.4 mph 0.00 in   Overcast
6:54 PM 25.0 °F 15.5 °F 16.0 °F 69% 29.95 in 10.0 mi NNW 9.2 mph 17.3 mph 0.00 in   Overcast
7:54 PM 21.9 °F 9.2 °F 14.0 °F 72% 29.99 in 10.0 mi North 13.8 mph 20.7 mph 0.00 in   Overcast
8:54 PM 19.9 °F 6.7 °F 12.0 °F 71% 30.01 in 8.0 mi NNW 13.8 mph 20.7 mph 0.00 in   Overcast
9:02 PM 19.4 °F 7.9 °F 10.4 °F 68% 29.95 in 10.0 mi North 10.4 mph 21.9 mph N/A   Overcast
9:25 PM 19.4 °F 8.6 °F 10.4 °F 68% 29.96 in 9.0 mi NNW 9.2 mph 23.0 mph 0.00 in   Overcast
9:54 PM 18.0 °F 6.9 °F 7.0 °F 62% 30.04 in 10.0 mi North 9.2 mph - 0.00 in   Overcast
10:54 PM 17.1 °F 7.6 °F 7.0 °F 65% 30.05 in 10.0 mi NW 6.9 mph - N/A   Overcast
11:54 PM 16.0 °F 8.8 °F 7.0 °F 68% 30.06 in 10.0 mi WNW 4.6 mph - N/A   Overcast